[[{"header":{"parameterUnit":"m.s-1","parameterCategory":2,"la1":30.2991,"la2":30.254,"lo1":-89.0895,"lo2":-89.0444,"dy":0.0017,"dx":0.0017,"nx":28,"ny":28,"refTime":"2023-10-21T21:00:00:Z","depth":"0","parameterNumber":2,"parameterNumberName":"U-component_of_CURRENTS"},"data":[0,0,0,0,0,0,0,0,0,0,0,0,0,0,0,0,0,0,0,0,0,0,0,0,0,0,0,0,0,0,0,0,0,0,0,0,0,0,0,0,0,0,0,0,0,0,0,0,0,0,0,0,0,0,0,0,0,0,0.4111,0.4111,0,0.4087,0.4087,0.4086,0.4032,0.4031,0.403,0.4029,0.4013,0.4013,0.4014,0,0,0,0,0,0,0,0,0,0,0,0,0,0.4126,0.4126,0.4111,0.4111,0.411,0.4087,0.4087,0.4086,0.4033,0.4031,0.403,0.4029,0.4013,0.4013,0.4014,0,0,0,0,0,0,0,0,0,0,0,0,0,0.4112,0.4126,0.4111,0.4082,0.4079,0.4087,0.4087,0.4086,0.4033,0.4031,0.403,0.4028,0.4013,0.4013,0.4014,0.4049,0,0,0.4016,0.4017,0,0,0,0,0,0,0,0,0.4113,0.4111,0.4086,0.4084,0.408,0.4062,0.4086,0.4074,0.4033,0.4049,0.4029,0.4028,0.4032,0.4031,0.4028,0.4049,0.4048,0.4016,0.4017,0.4017,0.4017,0,0,0,0,0,0,0,0.4114,0.4112,0.41,0.4086,0.4083,0.4075,0.4071,0.4083,0.4049,0.4048,0.4044,0.4043,0.403,0.4028,0.4028,0.4048,0.4016,0.4017,0.4018,0.4018,0.4088,0.409,0,0,0,0,0,0,0.4119,0.4113,0.4101,0.41,0.4094,0.4076,0.4072,0.4069,0.4048,0.4044,0.4045,0.4041,0.4027,0.4027,0.4027,0.4116,0.4017,0.4018,0.4018,0.4087,0.4089,0.409,0,0,0,0,0,0,0.412,0.4119,0.4102,0.4107,0.4104,0.4078,0.4075,0.4069,0.4073,0.4046,0.4041,0.4055,0.4026,0.4026,0.4046,0.4113,0.4018,0.4019,0.4085,0.4087,0.4089,0.4263,0,0,0,0,0,0,0.412,0.4119,0.4136,0.4107,0.4104,0.4136,0.4076,0.407,0.4075,0.407,0.4054,0.405,0.4025,0.4045,0.4047,0.4112,0.402,0.4083,0.4086,0.4089,0.4256,0.4271,0.4284,0,0,0,0,0,0.4121,0.4171,0.4137,0.4136,0.4122,0.4139,0.4138,0.4112,0.4077,0.4104,0.4076,0.4051,0.4062,0.4048,0.4049,0.4116,0.4082,0.4085,0.4088,0.4249,0.4268,0.4284,0,0,0,0,0,0,0.423,0.4169,0.4131,0.417,0.4159,0.413,0.4162,0.4127,0.4126,0.412,0.4076,0.4072,0.4112,0.4083,0.4067,0.4137,0.4066,0.407,0.4188,0.4205,0.4219,0.4265,0.402,0,0,0,0,0,0.4248,0.4243,0.4202,0.4237,0.4232,0.4192,0.4198,0.4175,0.4162,0.4158,0.414,0.4121,0.4128,0.414,0.4133,0.4185,0.4229,0.4222,0.4236,0.4249,0.4283,0.4409,0.4441,0.4101,0.41,0.41,0,0,0.43,0.427,0.4269,0.4255,0.4241,0.427,0.4194,0.4217,0.4244,0.4161,0.4203,0.4173,0.4147,0.4197,0.4213,0.4185,0.4371,0.4253,0.4265,0.4292,0.4417,0.4451,0.4481,0.4103,0.4102,0.4102,0,0,0.4418,0.4373,0.4409,0.4396,0.4379,0.435,0.4359,0.4332,0.4324,0.4346,0.4297,0.4311,0.4305,0.4319,0.4318,0.4409,0.4435,0.4396,0.4525,0.4648,0.4679,0.4706,0.4831,0.4868,0.4413,0.4414,0.4414,0,0.4505,0.4513,0.4435,0.4473,0.448,0.4392,0.4452,0.4438,0.4423,0.4442,0.4379,0.4405,0.4372,0.4464,0.4483,0.4451,0.4525,0.4469,0.4675,0.4702,0.4728,0.4848,0.4887,0.4422,0.4421,0.442,0.442,0,0.4627,0.4641,0.4672,0.4662,0.4669,0.4705,0.4659,0.4672,0.4627,0.4611,0.4665,0.462,0.4644,0.463,0.4582,0.4744,0.4742,0.4678,0.4648,0.4774,0.4891,0.4929,0.4435,0.4432,0.4429,0.4427,0,0,0.4811,0.4769,0.4781,0.4777,0.4763,0.4771,0.483,0.4856,0.4895,0.4871,0.4948,0.494,0.4907,0.4905,0.486,0.495,0.5177,0.4904,0.4906,0.5059,0.5486,0.539,0.5421,0.5169,0.5176,0.5181,0.5506,0,0.4941,0.5013,0.4972,0.5041,0.5057,0.5003,0.5054,0.5062,0.5051,0.5098,0.5075,0.5112,0.5015,0.503,0.5117,0.5133,0.5281,0.5096,0.5312,0.5319,0.5246,0.5463,0.5096,0.5347,0.5543,0.5549,0.5553,0,0.5065,0.5082,0.5168,0.5161,0.5173,0.5213,0.5254,0.5293,0.5338,0.5337,0.5391,0.535,0.5454,0.534,0.5538,0.5432,0.5506,0.5527,0.5539,0.5418,0.5294,0.5243,0.5407,0.5225,0.5611,0.5606,0.5602,0,0.5146,0.521,0.5265,0.5266,0.527,0.5316,0.5336,0.5377,0.5393,0.5505,0.5517,0.5636,0.5646,0.5783,0.5767,0.5707,0.598,0.5896,0.5912,0.5905,0.5618,0.5574,0.5652,0.6132,0.6131,0.6131,0.613,0,0.5243,0.5279,0.5299,0.531,0.537,0.5381,0.5455,0.549,0.5555,0.5585,0.5639,0.5676,0.5757,0.5854,0.5909,0.6017,0.6115,0.6012,0.601,0.5664,0.5623,0.5462,0.5401,0.6143,0.614,0.6138,0.6136,0,0.5256,0.5291,0.5322,0.5367,0.5382,0.5414,0.5451,0.5488,0.5576,0.5627,0.5662,0.5745,0.589,0.5967,0.6165,0.6154,0.611,0.6314,0.5897,0.5841,0.5666,0.5626,0.5603,0.5462,0.6444,0.6444,0.6444,0,0.5242,0.527,0.5318,0.5321,0.533,0.5379,0.5392,0.5478,0.5508,0.5638,0.5651,0.581,0.5882,0.6131,0.6165,0.6338,0.612,0.6087,0.5903,0.5683,0.564,0.5441,0.5308,0.561,0.5603,0.5597,0.5593,0,0.5187,0.5218,0.523,0.5248,0.5265,0.5284,0.5327,0.5341,0.5446,0.5505,0.5603,0.5701,0.5899,0.5867,0.6042,0.6073,0.5741,0.5982,0.5853,0.5115,0.4804,0.465,0.5386,0.5543,0.5548,0.5551,0.5554,0.5556,0.511,0.5104,0.5128,0.5135,0.5153,0.5158,0.513,0.5183,0.5222,0.5228,0.5445,0.5449,0.5499,0.569,0.5704,0.5417,0.5534,0.5206,0.5226,0.5085,0.4779,0.5431,0.5505,0.5509,0.5513,0.5516,0.552,0,0.4972,0.499,0.4999,0.4993,0.4968,0.5031,0.5038,0.4975,0.4953,0.4994,0.5061,0.496,0.4922,0.4913,0.4782,0.4649,0.4433,0.4498,0.4092,0.4044,0.47,0.4484,0.4211,0.4211,0.4212,0.4212,0.4212,0.4212,0.4896,0.4866,0.4887,0.4809,0.4803,0.4711,0.4689,0.4603,0.4581,0.4371,0.4218,0.4259,0.4315,0.4281,0.4057,0.3956,0.3704,0.3513,0.3663,0.4047,0.411,0.4171,0.3951,0.3571,0.3571,0.2704,0.2698,0.2693]},{"header":{"parameterUnit":"m.s-1","parameterCategory":2,"la1":30.2991,"la2":30.254,"lo1":-89.0895,"lo2":-89.0444,"dy":0.0017,"dx":0.0017,"nx":28,"ny":28,"refTime":"2023-10-21T21:00:00:Z","depth":"0","parameterNumber":3,"parameterNumberName":"V-component_of_CURRENTS"},"data":[0,0,0,0,0,0,0,0,0,0,0,0,0,0,0,0,0,0,0,0,0,0,0,0,0,0,0,0,0,0,0,0,0,0,0,0,0,0,0,0,0,0,0,0,0,0,0,0,0,0,0,0,0,0,0,0,0,0,-0.0791,-0.0792,0,-0.0898,-0.0899,-0.09,-0.0976,-0.0976,-0.0977,-0.0977,-0.1098,-0.11,-0.1103,0,0,0,0,0,0,0,0,0,0,0,0,0,-0.0691,-0.0692,-0.0791,-0.0793,-0.0794,-0.0897,-0.0899,-0.09,-0.0976,-0.0976,-0.0977,-0.0978,-0.1097,-0.11,-0.1103,0,0,0,0,0,0,0,0,0,0,0,0,0,-0.0759,-0.0692,-0.0791,-0.0844,-0.085,-0.0897,-0.0899,-0.0901,-0.0975,-0.0976,-0.0977,-0.0978,-0.1096,-0.1099,-0.1103,-0.111,0,0,-0.1115,-0.1117,0,0,0,0,0,0,0,0,-0.0755,-0.0763,-0.0835,-0.084,-0.0847,-0.0924,-0.0908,-0.0971,-0.0975,-0.0928,-0.0977,-0.0979,-0.104,-0.1049,-0.1067,-0.1115,-0.112,-0.1116,-0.1118,-0.112,-0.1121,0,0,0,0,0,0,0,-0.075,-0.0759,-0.0833,-0.0836,-0.0843,-0.0875,-0.0885,-0.092,-0.0978,-0.0932,-0.0938,-0.0949,-0.1044,-0.1063,-0.107,-0.1122,-0.1116,-0.1119,-0.1122,-0.1123,-0.1183,-0.1182,0,0,0,0,0,0,-0.0734,-0.0754,-0.083,-0.0837,-0.0802,-0.0876,-0.0888,-0.0899,-0.0977,-0.099,-0.0948,-0.0952,-0.1055,-0.1065,-0.1075,-0.1065,-0.112,-0.1124,-0.1126,-0.1183,-0.1182,-0.1182,0,0,0,0,0,0,-0.0732,-0.074,-0.0826,-0.0798,-0.0811,-0.0876,-0.0888,-0.09,-0.0914,-0.099,-0.1003,-0.095,-0.1057,-0.1069,-0.1094,-0.1071,-0.1125,-0.1129,-0.1184,-0.1183,-0.1182,-0.1061,0,0,0,0,0,0,-0.0728,-0.0738,-0.0731,-0.0797,-0.0812,-0.0831,-0.0888,-0.0902,-0.092,-0.0926,-0.0995,-0.1008,-0.1058,-0.1088,-0.1098,-0.1078,-0.1132,-0.1185,-0.1184,-0.1182,-0.1066,-0.1055,-0.1047,0,0,0,0,0,-0.0724,-0.0706,-0.0729,-0.0738,-0.0803,-0.0829,-0.0839,-0.089,-0.0919,-0.0909,-0.0963,-0.1005,-0.1086,-0.109,-0.1103,-0.1083,-0.1186,-0.1184,-0.1182,-0.107,-0.1057,-0.1047,0,0,0,0,0,0,-0.0652,-0.0714,-0.0741,-0.0741,-0.0773,-0.0842,-0.0836,-0.0876,-0.0912,-0.092,-0.0994,-0.1009,-0.1024,-0.1069,-0.1072,-0.1097,-0.1144,-0.1144,-0.1054,-0.1043,-0.1033,-0.0953,-0.1135,0,0,0,0,0,-0.0634,-0.0639,-0.0699,-0.0695,-0.0707,-0.0769,-0.0785,-0.0822,-0.0868,-0.0885,-0.0934,-0.0988,-0.1026,-0.1046,-0.1086,-0.1096,-0.1071,-0.1093,-0.1083,-0.1075,-0.1018,-0.0971,-0.095,-0.1176,-0.1176,-0.1176,0,0,-0.0605,-0.0638,-0.0641,-0.0679,-0.071,-0.0712,-0.078,-0.0795,-0.0795,-0.0891,-0.0896,-0.0953,-0.1022,-0.1035,-0.1045,-0.1069,-0.0998,-0.1073,-0.1065,-0.1012,-0.0966,-0.0944,-0.0924,-0.1174,-0.1175,-0.1175,0,0,-0.0553,-0.0576,-0.0568,-0.0584,-0.0624,-0.0659,-0.0657,-0.0716,-0.0735,-0.0753,-0.0824,-0.0846,-0.0918,-0.0946,-0.0976,-0.0933,-0.0949,-0.0972,-0.0856,-0.0812,-0.0791,-0.0773,-0.0702,-0.0678,-0.0967,-0.0967,-0.0967,0,-0.0521,-0.0517,-0.0564,-0.0556,-0.0556,-0.0626,-0.0608,-0.0634,-0.0693,-0.0686,-0.0735,-0.0793,-0.0862,-0.0853,-0.0849,-0.0904,-0.0876,-0.0895,-0.0794,-0.0775,-0.0758,-0.069,-0.0665,-0.0961,-0.0961,-0.0962,-0.0963,0,-0.0468,-0.0459,-0.0446,-0.0461,-0.0463,-0.0454,-0.0497,-0.0497,-0.0533,-0.056,-0.0555,-0.0633,-0.0657,-0.0701,-0.0766,-0.0695,-0.0711,-0.0784,-0.081,-0.0727,-0.0662,-0.0638,-0.0952,-0.0954,-0.0956,-0.0957,0,0,-0.0418,-0.0414,-0.0408,-0.0386,-0.0411,-0.0402,-0.0384,-0.0377,-0.0339,-0.0391,-0.0333,-0.041,-0.0439,-0.047,-0.0553,-0.0523,-0.0402,-0.0594,-0.0594,-0.0496,-0.0268,-0.0295,-0.0272,-0.0463,-0.0458,-0.0455,-0.0265,0,-0.0365,-0.0318,-0.0334,-0.0272,-0.0245,-0.0275,-0.0242,-0.024,-0.0249,-0.0208,-0.0258,-0.0248,-0.0359,-0.0365,-0.0346,-0.0397,-0.0335,-0.0444,-0.0383,-0.0379,-0.0393,-0.0244,-0.026,-0.0094,-0.0242,-0.0238,-0.0235,0,-0.0309,-0.0281,-0.0215,-0.0161,-0.015,-0.012,-0.0054,-0.0037,-0.0004,-0.0005,0.0014,-0.0033,0.0,-0.0113,-0.0069,-0.0135,-0.0161,-0.0194,-0.019,-0.0227,-0.0361,-0.0206,-0.0046,-0.0283,-0.0199,-0.0202,-0.0204,0,-0.0237,-0.0191,-0.0127,-0.0111,-0.0069,-0.0027,-0.0001,0.0037,0.0079,0.014,0.0189,0.0201,0.0219,0.0203,0.0115,0.0041,0.0176,0.0052,0.0028,0.0025,0.0024,0.0013,-0.001,0.0143,0.0142,0.0142,0.0141,0,-0.0169,-0.0114,-0.0082,-0.0041,0.0057,0.0059,0.0165,0.0191,0.0255,0.0346,0.0308,0.0387,0.03,0.0327,0.0241,0.0235,0.0284,0.0127,0.0095,0.0062,0.0053,-0.015,-0.0288,0.0149,0.0147,0.0146,0.0145,0,-0.0096,-0.0083,0.0001,0.0065,0.0094,0.0168,0.0253,0.0329,0.038,0.0505,0.0536,0.0568,0.0621,0.0541,0.0528,0.0408,0.0281,0.0364,0.0345,0.0308,0.0028,-0.0102,-0.0062,-0.0149,0.0402,0.0403,0.0403,0,-0.0058,-0.0006,0.0084,0.0136,0.017,0.0265,0.0334,0.039,0.0472,0.0619,0.0696,0.0781,0.0879,0.0864,0.0691,0.062,0.0368,0.0485,0.0333,0.0086,-0.0082,-0.0178,-0.0264,0.0389,0.039,0.039,0.039,0,0.0023,0.0055,0.0118,0.0225,0.0306,0.0404,0.0505,0.059,0.0683,0.0821,0.1006,0.1112,0.1099,0.1052,0.0894,0.0753,0.0309,0.0489,0.0247,-0.0045,-0.0155,-0.0281,0.0192,0.0394,0.0394,0.0393,0.0393,0.0393,0.0079,0.0136,0.0212,0.0316,0.0411,0.0536,0.0641,0.0778,0.0959,0.1231,0.1271,0.1555,0.1344,0.1158,0.089,0.0359,0.0378,0.0174,0.0062,0.0007,-0.0151,0.0347,0.0476,0.0476,0.0476,0.0476,0.0476,0,0.0136,0.0193,0.0293,0.0417,0.0534,0.0571,0.0751,0.0904,0.1161,0.15,0.1734,0.1875,0.1551,0.1131,0.0453,0.0026,-0.0173,-0.0245,-0.041,-0.046,0.0009,-0.0078,-0.008,-0.008,-0.008,-0.008,-0.008,-0.0079,0.0168,0.0258,0.0307,0.0494,0.059,0.0774,0.089,0.1166,0.1455,0.195,0.2256,0.2434,0.2094,0.0734,-0.0247,-0.0499,-0.082,-0.0853,-0.1001,-0.0762,-0.0734,-0.0708,-0.0823,-0.0982,-0.0983,-0.144,-0.1445,-0.1449]}],[{"header":{"parameterUnit":"m.s-1","parameterCategory":2,"la1":30.2991,"la2":30.254,"lo1":-89.0895,"lo2":-89.0444,"dy":0.0017,"dx":0.0017,"nx":28,"ny":28,"refTime":"2023-10-21T21:00:00:Z","depth":"2","parameterNumber":2,"parameterNumberName":"U-component_of_CURRENTS"},"data":[0,0,0,0,0,0,0,0,0,0,0,0,0,0,0,0,0,0,0,0,0,0,0,0,0,0,0,0,0,0,0,0,0,0,0,0,0,0,0,0,0,0,0,0,0,0,0,0,0,0,0,0,0,0,0,0,0,0,0.256,0.2561,0,0.26,0.26,0.26,0.2701,0.2704,0.2707,0.271,0.281,0.281,0.281,0,0,0,0,0,0,0,0,0,0,0,0,0,0.2442,0.2444,0.256,0.2561,0.2563,0.26,0.26,0.26,0.2701,0.2704,0.2708,0.2711,0.281,0.281,0.281,0,0,0,0,0,0,0,0,0,0,0,0,0,0.2481,0.2445,0.256,0.2624,0.263,0.26,0.26,0.26,0.27,0.2704,0.2709,0.2713,0.281,0.281,0.281,0.2722,0,0,0.2809,0.2809,0,0,0,0,0,0,0,0,0.2479,0.2485,0.2613,0.2619,0.2627,0.2658,0.2596,0.2647,0.2699,0.2665,0.271,0.2715,0.2766,0.277,0.2755,0.2727,0.2731,0.2809,0.2809,0.2809,0.2809,0,0,0,0,0,0,0,0.2477,0.2483,0.2568,0.2614,0.2623,0.2607,0.2617,0.2604,0.2685,0.2668,0.2678,0.2694,0.277,0.2755,0.2759,0.2733,0.2809,0.2809,0.2809,0.2809,0.2851,0.2852,0,0,0,0,0,0,0.249,0.2481,0.2567,0.257,0.2572,0.2607,0.2618,0.2636,0.2685,0.2698,0.269,0.2699,0.2753,0.2759,0.2763,0.2848,0.2809,0.2809,0.2809,0.285,0.2851,0.2853,0,0,0,0,0,0,0.2487,0.2497,0.2565,0.2533,0.2542,0.2606,0.2624,0.2635,0.2651,0.2702,0.2716,0.2701,0.2757,0.2763,0.279,0.2847,0.2809,0.2809,0.2849,0.285,0.2852,0.29,0,0,0,0,0,0,0.2484,0.2496,0.2505,0.2534,0.2544,0.2585,0.2622,0.2633,0.2657,0.2669,0.2714,0.2727,0.2761,0.279,0.279,0.2846,0.2809,0.2847,0.2849,0.2851,0.2897,0.2903,0.2908,0,0,0,0,0,0.2479,0.2492,0.2505,0.2516,0.2558,0.2586,0.2589,0.2642,0.2653,0.2668,0.2699,0.2727,0.2806,0.2789,0.2789,0.2847,0.2846,0.2849,0.2851,0.2894,0.2902,0.2908,0,0,0,0,0,0,0.2456,0.2505,0.252,0.255,0.2579,0.2608,0.2627,0.2635,0.266,0.2671,0.271,0.2724,0.2802,0.2785,0.2765,0.2866,0.2841,0.2844,0.2874,0.2881,0.2887,0.2961,0.2809,0,0,0,0,0,0.2448,0.2471,0.2511,0.2535,0.2553,0.2576,0.2589,0.2614,0.2643,0.2659,0.2704,0.2743,0.2799,0.2808,0.2862,0.2856,0.2902,0.2903,0.2909,0.2913,0.2975,0.3074,0.3096,0.2861,0.2861,0.2861,0,0,0.2448,0.2476,0.2492,0.2531,0.2556,0.2579,0.2596,0.2621,0.2655,0.266,0.273,0.2777,0.2811,0.2871,0.2898,0.2862,0.2992,0.2917,0.2921,0.2981,0.308,0.3103,0.3124,0.2863,0.2863,0.2862,0,0,0.2471,0.2484,0.2518,0.2526,0.2564,0.258,0.2588,0.2628,0.2673,0.2694,0.2763,0.2835,0.2854,0.2938,0.2963,0.3009,0.3048,0.3018,0.3074,0.3168,0.3189,0.3209,0.3248,0.3271,0.2986,0.2986,0.2986,0,0.248,0.2513,0.253,0.2551,0.2578,0.2584,0.2622,0.2639,0.2689,0.2749,0.2732,0.2893,0.2903,0.3039,0.3065,0.3033,0.3073,0.3041,0.318,0.32,0.322,0.3255,0.328,0.2988,0.2988,0.2988,0.2988,0,0.248,0.2536,0.2553,0.2591,0.2619,0.2638,0.2679,0.2727,0.2755,0.2791,0.2946,0.2985,0.3101,0.31,0.3082,0.3247,0.3225,0.3203,0.3168,0.3247,0.3277,0.3303,0.2992,0.2991,0.299,0.299,0,0,0.245,0.2549,0.2552,0.2608,0.2637,0.2663,0.2739,0.283,0.291,0.2961,0.3122,0.3188,0.3251,0.3291,0.3321,0.3371,0.3492,0.3336,0.334,0.3386,0.368,0.3547,0.356,0.3498,0.3504,0.3508,0.3629,0,0.2463,0.2534,0.2577,0.2659,0.2713,0.2762,0.2843,0.2916,0.2985,0.3131,0.3223,0.3372,0.3308,0.34,0.3449,0.3495,0.3571,0.3461,0.3591,0.3595,0.3477,0.3591,0.3291,0.3366,0.3653,0.3657,0.366,0,0.2442,0.2503,0.2602,0.2755,0.2783,0.2837,0.299,0.3076,0.3253,0.3322,0.3482,0.356,0.37,0.3644,0.3765,0.3697,0.373,0.3738,0.3742,0.364,0.3511,0.3344,0.3401,0.3702,0.3699,0.3696,0.3693,0,0.2403,0.2529,0.2626,0.2647,0.2795,0.2896,0.3002,0.3153,0.3257,0.3514,0.3585,0.3769,0.3877,0.3946,0.3916,0.3873,0.4036,0.3965,0.3899,0.3886,0.3674,0.3634,0.4146,0.4146,0.4146,0.4145,0.4145,0,0.2402,0.2487,0.2627,0.266,0.2819,0.2926,0.3114,0.3248,0.3444,0.3548,0.372,0.3812,0.3963,0.4034,0.4018,0.4005,0.4114,0.3972,0.3942,0.3671,0.3631,0.396,0.3937,0.415,0.4149,0.4148,0.4147,0,0.2422,0.2484,0.2603,0.2752,0.2826,0.2957,0.3188,0.3268,0.3467,0.3629,0.3722,0.3891,0.3957,0.4049,0.4167,0.4106,0.4131,0.4132,0.3776,0.3704,0.3896,0.3874,0.4073,0.407,0.4067,0.4065,0.4063,0,0.2448,0.2513,0.266,0.271,0.2811,0.3003,0.3093,0.3308,0.3391,0.3598,0.365,0.3824,0.3847,0.3963,0.3969,0.3997,0.4104,0.3766,0.3647,0.3955,0.3906,0.3887,0.3869,0.3361,0.3354,0.3348,0.3343,0,0.2501,0.255,0.2611,0.2725,0.2819,0.2924,0.3092,0.314,0.333,0.3413,0.3467,0.3515,0.3655,0.3561,0.3679,0.3641,0.3721,0.3642,0.4116,0.3412,0.329,0.3239,0.3244,0.3289,0.3294,0.3298,0.3301,0.3303,0.2518,0.2551,0.2596,0.2701,0.2779,0.2788,0.2814,0.2912,0.2985,0.3049,0.3176,0.3169,0.3266,0.3258,0.3175,0.318,0.3422,0.3307,0.3324,0.3347,0.323,0.311,0.305,0.3054,0.3058,0.306,0.3063,0,0.2493,0.2511,0.2562,0.26,0.2585,0.2719,0.2732,0.2671,0.2646,0.2771,0.2799,0.2606,0.2586,0.2708,0.2618,0.2637,0.2594,0.2553,0.2476,0.2533,0.2583,0.2424,0.2032,0.2028,0.2025,0.2022,0,0,0.2464,0.2444,0.2427,0.2358,0.2423,0.234,0.2302,0.2265,0.23,0.2231,0.2275,0.2457,0.2612,0.2272,0.2244,0.2122,0.2299,0.2044,0.2879,0.2843,0.2887,0.3036,0.2858,0,0,0,0,0]},{"header":{"parameterUnit":"m.s-1","parameterCategory":2,"la1":30.2991,"la2":30.254,"lo1":-89.0895,"lo2":-89.0444,"dy":0.0017,"dx":0.0017,"nx":28,"ny":28,"refTime":"2023-10-21T21:00:00:Z","depth":"2","parameterNumber":3,"parameterNumberName":"V-component_of_CURRENTS"},"data":[0,0,0,0,0,0,0,0,0,0,0,0,0,0,0,0,0,0,0,0,0,0,0,0,0,0,0,0,0,0,0,0,0,0,0,0,0,0,0,0,0,0,0,0,0,0,0,0,0,0,0,0,0,0,0,0,0,0,0.0539,0.0539,0,0.0447,0.0444,0.0442,0.0325,0.0324,0.0324,0.0323,0.0205,0.0202,0.02,0,0,0,0,0,0,0,0,0,0,0,0,0,0.0505,0.0506,0.0539,0.0539,0.0539,0.0447,0.0444,0.0442,0.0325,0.0324,0.0324,0.0323,0.0206,0.0202,0.0199,0,0,0,0,0,0,0,0,0,0,0,0,0,0.0464,0.0506,0.0539,0.048,0.0475,0.0447,0.0444,0.0441,0.0325,0.0324,0.0324,0.0323,0.0207,0.0203,0.0199,0.0193,0,0,0.0187,0.0185,0,0,0,0,0,0,0,0,0.0467,0.0464,0.0489,0.0485,0.0479,0.0409,0.0389,0.0362,0.0326,0.0367,0.0323,0.0322,0.028,0.027,0.0235,0.0187,0.0182,0.0187,0.0184,0.0183,0.0181,0,0,0,0,0,0,0,0.047,0.0466,0.0488,0.049,0.0483,0.0422,0.0415,0.0382,0.0319,0.0364,0.0359,0.0371,0.0275,0.0239,0.0232,0.018,0.0187,0.0183,0.0181,0.0179,0.0105,0.0106,0,0,0,0,0,0,0.0516,0.047,0.0492,0.0487,0.0486,0.0425,0.0416,0.0421,0.0319,0.0307,0.0372,0.0366,0.0246,0.0237,0.0227,0.0207,0.0183,0.0179,0.0177,0.0105,0.0105,0.0106,0,0,0,0,0,0,0.0516,0.0519,0.0495,0.0487,0.0482,0.0429,0.0434,0.042,0.038,0.0328,0.0313,0.0349,0.0245,0.0233,0.0201,0.0202,0.0177,0.0174,0.0105,0.0105,0.0106,0.0171,0,0,0,0,0,0,0.0515,0.0519,0.0518,0.0491,0.0485,0.0471,0.0436,0.0419,0.0397,0.0387,0.0304,0.0292,0.0244,0.0208,0.0198,0.0196,0.0171,0.0104,0.0105,0.0105,0.0169,0.0174,0.0178,0,0,0,0,0,0.0514,0.0521,0.0518,0.0521,0.0492,0.0472,0.046,0.041,0.0397,0.0371,0.0331,0.0294,0.0205,0.0205,0.0193,0.019,0.0104,0.0105,0.0105,0.0166,0.0173,0.0178,0,0,0,0,0,0,0.0494,0.0511,0.0506,0.0515,0.0497,0.0457,0.0442,0.0418,0.0363,0.0362,0.0301,0.0285,0.0251,0.022,0.0223,0.0172,0.0147,0.0146,0.0198,0.0203,0.0208,0.023,0.0167,0,0,0,0,0,0.0501,0.0512,0.0511,0.0514,0.0517,0.0482,0.0466,0.0442,0.0408,0.038,0.0329,0.0284,0.0246,0.0227,0.018,0.0163,0.013,0.0153,0.0158,0.0162,0.0172,0.0127,0.0129,0.0109,0.0109,0.0109,0,0,0.0498,0.0508,0.0513,0.0512,0.0497,0.0507,0.0465,0.0455,0.0446,0.0382,0.0341,0.0295,0.0244,0.0212,0.0195,0.0187,0.0151,0.0163,0.0167,0.0175,0.0128,0.013,0.0132,0.0109,0.0109,0.0109,0,0,0.0507,0.0509,0.0525,0.0527,0.0531,0.0516,0.0523,0.0491,0.0451,0.0426,0.0376,0.0342,0.0277,0.024,0.0218,0.0229,0.0174,0.0209,0.0256,0.0213,0.0215,0.0216,0.0179,0.0176,0.0218,0.0219,0.0219,0,0.0496,0.0537,0.052,0.0544,0.0566,0.0533,0.0564,0.0519,0.0472,0.0465,0.0423,0.0343,0.0293,0.0272,0.0266,0.024,0.0207,0.0238,0.022,0.022,0.022,0.0182,0.0178,0.0222,0.0221,0.0221,0.0221,0,0.0543,0.0566,0.058,0.0612,0.0611,0.0638,0.0614,0.0586,0.0554,0.053,0.0485,0.0403,0.0368,0.0335,0.0301,0.0279,0.0253,0.0227,0.0208,0.0226,0.0185,0.018,0.0226,0.0225,0.0224,0.0224,0,0,0.056,0.0606,0.0617,0.0653,0.0668,0.0683,0.0667,0.0668,0.0685,0.0598,0.0606,0.051,0.0475,0.0446,0.0384,0.0337,0.0298,0.0286,0.0282,0.0255,0.0204,0.017,0.016,0.0264,0.0263,0.0263,0.0177,0,0.0611,0.069,0.0691,0.076,0.0808,0.0784,0.0777,0.0764,0.0737,0.0725,0.0634,0.0611,0.0513,0.0499,0.0434,0.0347,0.0286,0.0324,0.0186,0.0182,0.0153,0.0154,0.0165,0.0088,0.0171,0.017,0.017,0,0.0679,0.0729,0.0809,0.0866,0.0885,0.0899,0.0933,0.0918,0.0886,0.0865,0.0821,0.0761,0.0689,0.0592,0.0432,0.046,0.0336,0.0245,0.0239,0.0183,0.0138,0.0081,0.0075,0.016,0.0161,0.0161,0.0162,0,0.0746,0.0821,0.0896,0.0922,0.0961,0.0971,0.0976,0.0963,0.0986,0.0952,0.0996,0.0878,0.0847,0.0669,0.0483,0.0459,0.0302,0.0251,0.0093,0.009,0.006,0.0055,0.0115,0.0115,0.0116,0.0116,0.0116,0,0.0821,0.0876,0.0931,0.0977,0.1052,0.1039,0.1092,0.1084,0.1102,0.1182,0.107,0.1105,0.0864,0.0754,0.0539,0.0316,0.0343,0.0102,0.0064,0.0083,0.0082,0.0113,0.0114,0.0113,0.0113,0.0114,0.0115,0,0.0853,0.0894,0.0986,0.1058,0.1078,0.1118,0.1173,0.1239,0.1232,0.1332,0.1339,0.1287,0.1133,0.0883,0.0616,0.0419,0.0188,0.0089,0.0131,0.0098,-0.0015,-0.001,-0.0091,-0.0093,-0.0095,-0.0096,-0.0097,0,0.0877,0.0928,0.1052,0.111,0.1133,0.1188,0.1253,0.1283,0.1377,0.1456,0.1543,0.1436,0.1361,0.0959,0.0586,0.0205,0.0166,-0.0012,-0.0072,-0.0008,-0.0037,-0.0029,-0.0021,-0.0085,-0.0086,-0.0087,-0.0088,0,0.0914,0.0955,0.1035,0.1176,0.1264,0.1376,0.1473,0.1581,0.1656,0.172,0.1798,0.1731,0.1368,0.0979,0.0484,0.0231,0.0048,-0.0041,0.0022,-0.0032,-0.0009,-0.0035,-0.0027,-0.0095,-0.0094,-0.0093,-0.0093,-0.0093,0.0937,0.1002,0.1125,0.1255,0.1371,0.1562,0.167,0.1788,0.1918,0.2011,0.1956,0.181,0.1429,0.0737,0.0361,-0.0026,-0.0028,-0.0175,-0.017,-0.0165,-0.0145,-0.0127,-0.0231,-0.0231,-0.0231,-0.0231,-0.0231,0,0.0966,0.1054,0.12,0.1382,0.1544,0.1589,0.183,0.1916,0.2057,0.207,0.2023,0.1607,0.118,0.0758,0.0168,-0.018,-0.02,-0.0275,-0.0221,-0.0213,-0.0206,-0.0187,-0.0285,-0.0285,-0.0286,-0.0287,0,0,0.0994,0.1128,0.1235,0.1509,0.1625,0.1853,0.1997,0.2072,0.2107,0.2051,0.1918,0.1728,0.1243,0.0812,0.0356,0.0041,-0.0005,-0.0025,0.0048,0.0172,0.0184,-0.0127,-0.0086,0,0,0,0,0]}],[{"header":{"parameterUnit":"m.s-1","parameterCategory":2,"la1":30.2991,"la2":30.254,"lo1":-89.0895,"lo2":-89.0444,"dy":0.0017,"dx":0.0017,"nx":28,"ny":28,"refTime":"2023-10-21T21:00:00:Z","depth":"4","parameterNumber":2,"parameterNumberName":"U-component_of_CURRENTS"},"data":[0,0,0,0,0,0,0,0,0,0,0,0,0,0,0,0,0,0,0,0,0,0,0,0,0,0,0,0,0,0,0,0,0,0,0,0,0,0,0,0,0,0,0,0,0,0,0,0,0,0,0,0,0,0,0,0,0,0,0.1082,0.1082,0,0.1157,0.1159,0.116,0.1241,0.1241,0.1242,0.1242,0.13,0.1301,0.1302,0,0,0,0,0,0,0,0,0,0,0,0,0,0.1043,0.1044,0.1082,0.1082,0.1082,0.1157,0.1159,0.1161,0.1241,0.1241,0.1242,0.1242,0.13,0.1301,0.1303,0,0,0,0,0,0,0,0,0,0,0,0,0,0.109,0.1044,0.1082,0.1126,0.113,0.1157,0.1159,0.1161,0.124,0.1241,0.1242,0.1242,0.1299,0.1301,0.1303,0.13,0,0,0.1308,0.1309,0,0,0,0,0,0,0,0,0.1088,0.1093,0.1119,0.1123,0.1127,0.1184,0.1166,0.1204,0.124,0.1206,0.1242,0.1243,0.1254,0.126,0.1284,0.1303,0.1306,0.1308,0.1309,0.131,0.131,0,0,0,0,0,0,0,0.1084,0.109,0.112,0.1119,0.1124,0.1153,0.1161,0.1175,0.1231,0.1209,0.1214,0.121,0.1257,0.1282,0.1285,0.1306,0.1308,0.131,0.1311,0.1311,0.1411,0.1413,0,0,0,0,0,0,0.1057,0.1087,0.1117,0.1121,0.11,0.1153,0.1162,0.1171,0.1232,0.1239,0.1209,0.1213,0.1278,0.1283,0.1287,0.1378,0.131,0.1312,0.1313,0.141,0.1412,0.1413,0,0,0,0,0,0,0.1056,0.106,0.1114,0.1099,0.1107,0.1152,0.1162,0.1172,0.1222,0.123,0.1239,0.125,0.1279,0.1285,0.1334,0.1377,0.1312,0.1314,0.1408,0.141,0.1413,0.1501,0,0,0,0,0,0,0.1055,0.1059,0.1082,0.1097,0.1106,0.1156,0.1161,0.1173,0.1213,0.122,0.1267,0.1272,0.128,0.1331,0.1335,0.1378,0.1315,0.1406,0.1409,0.1412,0.1496,0.1506,0.1514,0,0,0,0,0,0.1054,0.1072,0.1083,0.1087,0.1128,0.1157,0.1167,0.1205,0.1214,0.1251,0.1281,0.1272,0.1353,0.1334,0.1339,0.1383,0.1404,0.1408,0.1412,0.1492,0.1504,0.1514,0,0,0,0,0,0,0.107,0.1081,0.1094,0.1117,0.1146,0.1168,0.1198,0.1217,0.1272,0.1286,0.1294,0.1302,0.1365,0.1355,0.1334,0.1419,0.1376,0.1381,0.1436,0.1447,0.1456,0.145,0.1317,0,0,0,0,0,0.1079,0.11,0.1114,0.1139,0.1149,0.1179,0.1201,0.1229,0.1261,0.1288,0.1323,0.1352,0.1379,0.1398,0.1427,0.1467,0.1472,0.1497,0.1506,0.1514,0.1512,0.1582,0.1598,0.1425,0.1425,0.1425,0,0,0.1088,0.1099,0.1112,0.1145,0.1167,0.1194,0.1198,0.1241,0.128,0.1282,0.1364,0.1393,0.1398,0.146,0.1484,0.1459,0.1565,0.1519,0.1526,0.1519,0.1588,0.1604,0.1619,0.1428,0.1427,0.1427,0,0,0.1095,0.113,0.114,0.117,0.1206,0.1229,0.1243,0.1292,0.1336,0.1402,0.1417,0.146,0.1517,0.153,0.1535,0.1603,0.1618,0.1631,0.1671,0.174,0.1755,0.1768,0.1791,0.1806,0.163,0.163,0.163,0,0.1104,0.1121,0.1152,0.1172,0.1196,0.1242,0.1264,0.1316,0.1386,0.1423,0.144,0.1538,0.1539,0.159,0.1623,0.1623,0.1668,0.163,0.1754,0.1767,0.1779,0.18,0.1815,0.1635,0.1634,0.1634,0.1633,0,0.1112,0.1138,0.1149,0.1189,0.1231,0.1263,0.1318,0.1384,0.1439,0.149,0.1585,0.1614,0.1667,0.1681,0.1673,0.1763,0.1769,0.1766,0.1728,0.1802,0.1818,0.1832,0.1641,0.164,0.1638,0.1637,0,0,0.1083,0.1138,0.1144,0.1171,0.1244,0.1277,0.1348,0.1419,0.1485,0.1574,0.1657,0.1705,0.1754,0.1762,0.1778,0.1828,0.1938,0.185,0.1852,0.1875,0.2097,0.1955,0.1956,0.1996,0.1999,0.2001,0.2072,0,0.1073,0.1102,0.1142,0.1197,0.1218,0.1294,0.1365,0.1453,0.1541,0.165,0.1697,0.1797,0.1778,0.1837,0.1885,0.1948,0.1983,0.1918,0.2017,0.2018,0.1887,0.197,0.2011,0.2082,0.2085,0.2087,0.2089,0,0.1056,0.1084,0.1122,0.1207,0.1228,0.1287,0.1415,0.1489,0.1633,0.1713,0.1813,0.1885,0.1977,0.1957,0.2078,0.2064,0.2081,0.2104,0.2108,0.1951,0.1903,0.1993,0.2114,0.2112,0.211,0.2109,0.2107,0,0.1007,0.1069,0.1102,0.1132,0.1241,0.1294,0.1372,0.1514,0.1603,0.1777,0.1879,0.1993,0.2073,0.2149,0.2198,0.218,0.2325,0.2291,0.2156,0.2145,0.2212,0.2197,0.235,0.235,0.235,0.235,0.235,0,0.0964,0.0989,0.1094,0.1114,0.1193,0.1293,0.1404,0.1502,0.1673,0.1789,0.1928,0.2022,0.2142,0.2234,0.2259,0.226,0.2372,0.2172,0.2166,0.2244,0.2232,0.2221,0.2205,0.2352,0.2352,0.2351,0.2351,0,0.0872,0.0942,0.0991,0.1117,0.1165,0.1233,0.1405,0.1494,0.1678,0.1836,0.191,0.2084,0.2206,0.2292,0.2392,0.2309,0.2339,0.2294,0.2369,0.2365,0.2091,0.2079,0.2153,0.2149,0.2146,0.2143,0.214,0,0.0821,0.0832,0.0968,0.1029,0.1087,0.1203,0.1287,0.1472,0.1569,0.1846,0.1909,0.2093,0.2187,0.2227,0.23,0.2338,0.229,0.2265,0.2163,0.209,0.2077,0.2071,0.2064,0.2135,0.2134,0.2133,0.2132,0,0.0722,0.0781,0.083,0.094,0.1043,0.1127,0.1261,0.1331,0.1558,0.1738,0.1889,0.1973,0.2079,0.2135,0.218,0.2191,0.2276,0.2227,0.2232,0.2136,0.2068,0.2058,0.2055,0.212,0.2121,0.2122,0.2123,0,0.0667,0.0674,0.0764,0.0859,0.0954,0.1031,0.1118,0.1252,0.1376,0.1692,0.1714,0.1923,0.2059,0.2057,0.2108,0.2117,0.2058,0.1957,0.1975,0.1989,0.19,0.1787,0.1758,0,0,0,0,0,0.0612,0.0622,0.0689,0.079,0.0861,0.0933,0.1091,0.1194,0.1411,0.1483,0.1611,0.1721,0.1816,0.1887,0.1861,0.1989,0.204,0.1942,0.1925,0.2052,0.2066,0.1973,0,0,0,0,0,0,0.059,0.0627,0.0658,0.0698,0.0746,0.0829,0.0927,0.1087,0.1134,0.1365,0.1426,0.1587,0.1696,0.1825,0.1822,0.1843,0.1787,0.2055,0.205,0.2044,0.2057,0.2068,0.1978,0,0,0,0,0]},{"header":{"parameterUnit":"m.s-1","parameterCategory":2,"la1":30.2991,"la2":30.254,"lo1":-89.0895,"lo2":-89.0444,"dy":0.0017,"dx":0.0017,"nx":28,"ny":28,"refTime":"2023-10-21T21:00:00:Z","depth":"4","parameterNumber":3,"parameterNumberName":"V-component_of_CURRENTS"},"data":[0,0,0,0,0,0,0,0,0,0,0,0,0,0,0,0,0,0,0,0,0,0,0,0,0,0,0,0,0,0,0,0,0,0,0,0,0,0,0,0,0,0,0,0,0,0,0,0,0,0,0,0,0,0,0,0,0,0,0.0439,0.0439,0,0.0411,0.041,0.041,0.0392,0.0392,0.0393,0.0393,0.0311,0.0309,0.0307,0,0,0,0,0,0,0,0,0,0,0,0,0,0.0452,0.0452,0.0439,0.0439,0.0439,0.0411,0.041,0.041,0.0392,0.0392,0.0393,0.0393,0.0312,0.0309,0.0306,0,0,0,0,0,0,0,0,0,0,0,0,0,0.0435,0.0452,0.0439,0.0429,0.0428,0.0411,0.041,0.0409,0.0392,0.0392,0.0393,0.0393,0.0313,0.0309,0.0306,0.028,0,0,0.0295,0.0294,0,0,0,0,0,0,0,0,0.0436,0.0434,0.0431,0.043,0.0428,0.0408,0.0385,0.0364,0.0392,0.0403,0.0393,0.0393,0.034,0.0334,0.0326,0.0277,0.0273,0.0295,0.0293,0.0292,0.0291,0,0,0,0,0,0,0,0.0437,0.0435,0.0425,0.0431,0.0429,0.0417,0.0414,0.0381,0.0368,0.0402,0.0401,0.0402,0.0339,0.0329,0.0323,0.0272,0.0295,0.0292,0.029,0.0289,0.0214,0.0215,0,0,0,0,0,0,0.0447,0.0436,0.0426,0.0425,0.0436,0.0417,0.0414,0.0412,0.0369,0.0364,0.0402,0.0402,0.0335,0.0327,0.032,0.0304,0.0292,0.0288,0.0286,0.0214,0.0215,0.0215,0,0,0,0,0,0,0.0447,0.0446,0.0428,0.0432,0.0429,0.0417,0.0414,0.0411,0.0411,0.037,0.0364,0.0406,0.0335,0.0325,0.0298,0.03,0.0287,0.0284,0.0214,0.0214,0.0215,0.0259,0,0,0,0,0,0,0.0448,0.0446,0.0449,0.0433,0.043,0.0421,0.0414,0.0411,0.0412,0.0411,0.0371,0.0363,0.0334,0.0304,0.0295,0.0295,0.0281,0.0214,0.0214,0.0215,0.0258,0.0261,0.0264,0,0,0,0,0,0.0448,0.0448,0.0449,0.0448,0.0433,0.0421,0.0418,0.0407,0.0412,0.0409,0.0387,0.0365,0.0299,0.0301,0.029,0.0289,0.0214,0.0214,0.0215,0.0256,0.026,0.0264,0,0,0,0,0,0,0.0449,0.0446,0.0447,0.0445,0.0437,0.0419,0.0418,0.0415,0.0396,0.04,0.0363,0.0353,0.0332,0.0304,0.0308,0.0269,0.0254,0.0252,0.0289,0.0293,0.0296,0.0312,0.0278,0,0,0,0,0,0.0454,0.0458,0.0448,0.0448,0.0446,0.0436,0.0432,0.0429,0.0412,0.0405,0.0377,0.0349,0.0322,0.0304,0.0276,0.025,0.0206,0.0244,0.0247,0.025,0.0256,0.0189,0.0187,0.0215,0.0215,0.0215,0,0,0.0457,0.0455,0.0458,0.045,0.0444,0.0449,0.0433,0.0435,0.0438,0.0398,0.0388,0.0359,0.032,0.0295,0.0283,0.0273,0.0216,0.025,0.0253,0.0257,0.0189,0.0186,0.0184,0.0216,0.0216,0.0215,0,0,0.047,0.0462,0.0474,0.0473,0.0473,0.0462,0.0468,0.0455,0.0447,0.0434,0.041,0.0382,0.034,0.031,0.0291,0.0292,0.0238,0.0286,0.0308,0.0243,0.024,0.0237,0.0168,0.0158,0.0283,0.0283,0.0283,0,0.0477,0.049,0.0474,0.0487,0.0494,0.0474,0.0493,0.0476,0.0457,0.0451,0.0438,0.038,0.0347,0.0315,0.032,0.0298,0.0252,0.0298,0.0246,0.0242,0.0238,0.0169,0.0157,0.0285,0.0285,0.0285,0.0284,0,0.05,0.0515,0.052,0.0533,0.0533,0.0543,0.0528,0.0522,0.0511,0.0494,0.0464,0.0411,0.0378,0.036,0.0341,0.0302,0.0275,0.0261,0.0238,0.0238,0.0165,0.0152,0.0288,0.0287,0.0287,0.0286,0,0,0.0508,0.0535,0.054,0.0566,0.0564,0.0571,0.057,0.0563,0.0571,0.0526,0.0515,0.0463,0.0435,0.0411,0.0372,0.0315,0.0245,0.0284,0.0279,0.0217,0.0095,0.009,0.0075,0.022,0.0219,0.0217,0.0051,0,0.0536,0.0584,0.0582,0.0625,0.0649,0.0635,0.0638,0.0628,0.0606,0.0582,0.0514,0.0491,0.0452,0.044,0.0375,0.0288,0.0216,0.0291,0.0103,0.0097,0.0094,0.0063,0.0212,0.0041,0.0038,0.0036,0.0035,0,0.0563,0.0593,0.0653,0.069,0.0698,0.0721,0.0734,0.0734,0.069,0.0669,0.0619,0.0563,0.0483,0.0446,0.0275,0.0326,0.0217,0.0135,0.0126,0.01,0.007,0.0042,0.0011,0.0013,0.0015,0.0017,0.0018,0,0.0595,0.0642,0.07,0.0715,0.0747,0.0774,0.0786,0.0771,0.0781,0.0729,0.072,0.0607,0.0545,0.0408,0.0247,0.0258,0.0041,0.0031,-0.0088,-0.0091,-0.0056,-0.0051,-0.011,-0.011,-0.0109,-0.0109,-0.0108,0,0.0628,0.0673,0.0731,0.0764,0.0825,0.0833,0.0883,0.0874,0.0865,0.0869,0.0777,0.0728,0.0532,0.0388,0.0245,0.0042,0.0032,-0.0093,-0.0135,-0.0034,-0.0025,-0.0066,-0.0059,-0.0115,-0.0114,-0.0113,-0.0112,0,0.0657,0.0697,0.0765,0.0824,0.0849,0.09,0.0958,0.0986,0.0975,0.0973,0.0959,0.0803,0.0611,0.0414,0.0159,0.0039,-0.0146,-0.0223,-0.0108,-0.0139,-0.024,-0.0228,-0.0372,-0.0373,-0.0375,-0.0376,-0.0377,0,0.0675,0.0716,0.0812,0.086,0.0898,0.0971,0.1016,0.104,0.106,0.101,0.0995,0.0819,0.0692,0.0332,0.0116,-0.0173,-0.0212,-0.0316,-0.0272,-0.0241,-0.0268,-0.0254,-0.0241,-0.0379,-0.0379,-0.0379,-0.038,0,0.0695,0.074,0.0795,0.0896,0.0974,0.1043,0.1104,0.1128,0.1137,0.1135,0.1018,0.0834,0.0594,0.0314,0.0082,-0.0121,-0.0242,-0.0331,-0.0329,-0.0288,-0.0251,-0.0273,-0.0259,-0.0384,-0.0384,-0.0383,-0.0383,0,0.0707,0.075,0.083,0.0915,0.0999,0.1068,0.1115,0.1125,0.1146,0.1103,0.1045,0.0819,0.0669,0.0336,0.0128,-0.0072,-0.0123,-0.018,-0.0187,-0.0184,-0.0071,0.0008,-0.0091,0,0,0,0,0,0.0707,0.0758,0.0836,0.0928,0.1003,0.1067,0.1137,0.1173,0.1188,0.1124,0.1096,0.0886,0.0553,0.0382,0.0181,0.009,-0.0166,-0.0155,-0.0235,-0.041,-0.0404,-0.0302,0,0,0,0,0,0,0.0712,0.079,0.0831,0.0905,0.097,0.1065,0.1123,0.1153,0.1104,0.109,0.0907,0.0838,0.0503,0.0677,0.0178,0.0113,0.0033,-0.0307,-0.0311,-0.0413,-0.0408,-0.0404,-0.0297,0,0,0,0,0]}]]